Simultaneous Nadir Overpasses (SNOs) Predictions

Prediction of SNOs between LANDSAT-8 and METOP-B Satellite Orbit:

Table of predicted SNOs for the next 14.0 days since TLE Epoch: 9/25/2021
Index Date (LANDSAT-8) Time (LANDSAT-8) Lat,Lon (LANDSAT-8) SZA (LANDSAT-8 ) Date (METOP-B) Time (METOP-B) Lat,Lon (METOP-B) SZA (METOP-B ) Distance(km) Time Diff (sec)
1 09/26/2021 22:09:20 -81.13, 67.83 94.98 09/26/2021 22:09:17 -81.13, 67.68 95.00 2.65 3
2 09/26/2021 22:58:46 81.14,-124.41 85.06 09/26/2021 22:59:56 81.15,-124.40 85.09 0.68 70
3 09/29/2021 16:54:11 81.10, -33.80 86.06 09/29/2021 16:53:00 81.10, -33.99 86.01 3.20 71
4 09/29/2021 17:43:37 -81.12, 134.14 93.89 09/29/2021 17:43:39 -81.13, 134.14 93.88 0.35 2
5 10/02/2021 12:28:26 81.12, 32.85 87.20 10/02/2021 12:27:20 81.11, 32.79 87.16 1.25 66
6 10/02/2021 13:17:52 -81.14,-159.18 92.74 10/02/2021 13:17:59 -81.14,-159.04 92.72 2.46 7
7 10/05/2021 08:02:43 81.11, 99.13 88.28 10/05/2021 08:01:42 81.11, 99.17 88.26 0.64 61
8 10/05/2021 08:52:09 -81.13, -92.88 91.66 10/05/2021 08:52:22 -81.13, -92.99 91.66 2.06 13
9 10/08/2021 03:36:59 81.12, 165.78 89.41 10/08/2021 03:36:03 81.12, 165.90 89.40 2.13 56



Historial Predications of SNOs between LANDSAT-8 and METOP-B
